M I D A S
Marine Information and Data Acquisition System
Tripno 730 of the Zeeleeuw from 2004-06-07 06:53:37 to 2004-06-07 15:48:18
Back to CruiseResearch ActivitiesStationsMapUnderway DataData graphs

EquipmentUnitsComments
TimeDGPSUTC
LatitudeDGPSDM.mWGS84
LongitudeDGPSDM.mWGS84
SpeedMeteo Stationm/sRelative wind speed
DirectionMeteo StationdegRelative wind direction
TemperatureMeteo Stationdeg CelciusAir temperature
PressureMeteo StationPaAtmospheric pressure
HumidityMeteo Station%Relative humidity
Missing or incorrect values are displayed as -999
Metereological data collected by the RV Zeeleeuw from 2004-06-07 06:53:37 to 2004-06-07 15:48:18
Time Latitude Longitude Speed Direction Temperature Pressure Humidity
2004-06-07 06:54 51°13.597 2°56.092 1.9 110 18.3 101950 70
2004-06-07 06:55 51°13.624 2°56.002 2.8 148 18.3 101950 70
2004-06-07 06:56 51°13.665 2°55.871 1.9 190 18.3 101960 70
2004-06-07 06:57 51°13.68 2°55.762 3.2 131 18.4 101950 70
2004-06-07 06:58 51°13.704 2°55.773 1.3 182 18.4 101960 71
2004-06-07 06:59 51°13.691 2°55.768 0.6 203 18.5 101960 71
2004-06-07 07:00 51°13.745 2°55.713 1 293 18.6 101960 71
2004-06-07 07:01 51°13.827 2°55.641 1.4 42 18.7 101960 70
2004-06-07 07:02 51°13.938 2°55.564 2.1 6 18.8 101960 69
2004-06-07 07:03 51°14.057 2°55.482 2.2 5 18.9 101960 68
2004-06-07 07:04 51°14.19 2°55.37 3.2 351 18.9 101960 68
2004-06-07 07:05 51°14.314 2°55.172 6.1 341 19 101960 68
2004-06-07 07:06 51°14.448 2°54.921 6.5 335 19.1 101950 66
2004-06-07 07:07 51°14.606 2°54.66 6.8 341 19.1 101950 66
2004-06-07 07:08 51°14.77 2°54.43 5.8 334 19.1 101960 68
2004-06-07 07:09 51°14.938 2°54.201 6 338 19 101960 69
2004-06-07 07:10 51°15.103 2°53.954 6.3 347 18.9 101960 71
2004-06-07 07:11 51°15.253 2°53.697 6.6 339 18.7 101960 72
2004-06-07 07:12 51°15.41 2°53.434 7.4 348 18.5 101960 73
2004-06-07 07:13 51°15.559 2°53.171 6.7 333 18.4 101960 74
2004-06-07 07:14 51°15.685 2°52.88 7.5 335 18.3 101950 74
2004-06-07 07:15 51°15.742 2°52.541 8.2 340 18.2 101950 75
2004-06-07 07:16 51°15.751 2°52.172 8.8 348 18 101950 76
2004-06-07 07:17 51°15.723 2°51.82 8 350 18 101950 77
2004-06-07 07:18 51°15.702 2°51.46 8.3 343 17.9 101950 78
2004-06-07 07:19 51°15.652 2°51.102 8.4 348 17.8 101950 78
2004-06-07 07:20 51°15.595 2°50.752 8.1 348 17.8 101950 78
2004-06-07 07:21 51°15.539 2°50.407 9 348 17.8 101950 79
2004-06-07 07:22 51°15.491 2°50.065 8.8 346 17.7 101950 79
2004-06-07 07:23 51°15.444 2°49.697 7.9 351 17.7 101950 79
2004-06-07 07:24 51°15.398 2°49.335 8.1 349 17.7 101960 79
2004-06-07 07:25 51°15.354 2°48.99 8.7 346 17.6 101950 79
2004-06-07 07:26 51°15.306 2°48.621 9 344 17.6 101950 79
2004-06-07 07:27 51°15.258 2°48.263 8.3 346 17.6 101960 79
2004-06-07 07:28 51°15.212 2°47.912 8.1 350 17.6 101960 80
2004-06-07 07:29 51°15.166 2°47.554 8 348 17.6 101960 80
2004-06-07 07:30 51°15.119 2°47.195 8 348 17.5 101960 80
2004-06-07 07:31 51°15.069 2°46.829 8.2 353 17.5 101960 80
2004-06-07 07:32 51°15.018 2°46.467 8.7 353 17.5 101960 80
2004-06-07 07:33 51°14.967 2°46.112 8 355 17.4 101960 80
2004-06-07 07:34 51°14.914 2°45.751 8 354 17.4 101970 80
2004-06-07 07:35 51°14.859 2°45.384 7.6 354 17.3 101960 81
2004-06-07 07:36 51°14.807 2°45.028 8.7 353 17.3 101970 81
2004-06-07 07:37 51°14.751 2°44.666 7.8 351 17.3 101970 81
2004-06-07 07:38 51°14.695 2°44.309 8.6 351 17.4 101960 81
2004-06-07 07:39 51°14.636 2°43.933 8.2 348 17.4 101960 81
2004-06-07 07:40 51°14.579 2°43.569 8.7 349 17.4 101970 81
2004-06-07 07:41 51°14.522 2°43.209 8.2 348 17.4 101970 81
2004-06-07 07:42 51°14.468 2°42.848 8.3 347 17.4 101970 81
2004-06-07 07:43 51°14.415 2°42.482 8.1 349 17.4 101970 80
2004-06-07 07:44 51°14.363 2°42.122 7.7 352 17.4 101970 80
2004-06-07 07:45 51°14.314 2°41.75 7.9 350 17.5 101970 81
2004-06-07 07:46 51°14.271 2°41.383 8 349 17.5 101970 81
2004-06-07 07:47 51°14.234 2°41.013 8.4 348 17.5 101970 81
2004-06-07 07:48 51°14.201 2°40.647 8.5 349 17.5 101970 80
2004-06-07 07:49 51°14.175 2°40.276 7.7 350 17.5 101980 80
2004-06-07 07:50 51°14.151 2°39.899 8.2 352 17.5 101970 80
2004-06-07 07:51 51°14.128 2°39.537 7.9 352 17.6 101970 81
2004-06-07 07:52 51°14.102 2°39.16 8.5 349 17.5 101970 81
2004-06-07 07:53 51°14.079 2°38.796 8.7 349 17.4 101970 81
2004-06-07 07:54 51°14.051 2°38.417 9 349 17.4 101970 80
2004-06-07 07:55 51°13.987 2°38.064 8.5 353 17.3 101970 80
2004-06-07 07:56 51°13.922 2°37.704 8.5 351 17.3 101970 80
2004-06-07 07:57 51°13.847 2°37.349 8.8 353 17.3 101970 80
2004-06-07 07:58 51°13.741 2°37.009 8.9 353 17.3 101970 80
2004-06-07 07:59 51°13.637 2°36.681 9.4 353 17.3 101970 81
2004-06-07 08:00 51°13.529 2°36.341 8.9 353 17.2 101970 81
2004-06-07 08:01 51°13.408 2°36.022 9 355 17.2 101970 81
2004-06-07 08:02 51°13.274 2°35.719 9.7 355 17.2 101970 80
2004-06-07 08:03 51°13.136 2°35.428 9.9 355 17.1 101970 80
2004-06-07 08:04 51°13.001 2°35.142 9.9 354 17.2 101970 80
2004-06-07 08:05 51°12.845 2°34.848 9.5 354 17.2 101970 80
2004-06-07 08:06 51°12.693 2°34.573 9.5 357 17.2 101970 80
2004-06-07 08:07 51°12.539 2°34.295 9.9 356 17.3 101970 80
2004-06-07 08:08 51°12.378 2°34.026 9.5 360 17.3 101970 80
2004-06-07 08:09 51°12.211 2°33.768 9.8 360 17.3 101970 80
2004-06-07 08:10 51°12.048 2°33.525 7.8 1 17.3 101970 79
2004-06-07 08:11 51°11.935 2°33.388 5.7 8 17.4 101980 79
2004-06-07 08:12 51°11.858 2°33.339 4.2 20 17.4 101990 79
2004-06-07 08:13 51°11.81 2°33.301 4 14 17.5 101990 79
2004-06-07 08:14 51°11.772 2°33.26 3.4 13 17.6 101990 78
2004-06-07 08:15 51°11.724 2°33.212 4.2 13 17.6 101990 78
2004-06-07 08:16 51°11.66 2°33.153 4.5 11 17.6 101990 78
2004-06-07 08:17 51°11.592 2°33.09 4.3 11 17.6 101990 78
2004-06-07 08:18 51°11.524 2°33.025 4.2 9 17.6 101990 79
2004-06-07 08:19 51°11.461 2°32.946 4.4 5 17.5 101990 79
2004-06-07 08:20 51°11.4 2°32.864 4.4 7 17.5 101990 79
2004-06-07 08:21 51°11.339 2°32.783 4.5 7 17.5 101990 79
2004-06-07 08:22 51°11.281 2°32.693 4.4 4 17.5 101990 80
2004-06-07 08:23 51°11.226 2°32.601 4.1 3 17.5 101990 80
2004-06-07 08:24 51°11.184 2°32.526 3.5 3 17.5 101990 80
2004-06-07 08:25 51°11.151 2°32.461 3.5 360 17.5 102000 79
2004-06-07 08:26 51°11.124 2°32.402 3.2 358 17.6 102000 78
2004-06-07 08:27 51°11.099 2°32.345 3.2 359 17.7 102000 77
2004-06-07 08:28 51°11.07 2°32.286 3.4 5 17.9 102000 76
2004-06-07 08:29 51°11.036 2°32.233 3.5 8 18 102000 75
2004-06-07 08:30 51°10.999 2°32.185 3.5 7 18.1 102000 74
2004-06-07 08:31 51°10.959 2°32.139 3.5 6 18.2 102000 73
2004-06-07 08:32 51°10.919 2°32.094 3.5 4 18.2 102000 73
2004-06-07 08:33 51°10.879 2°32.043 3.5 359 18.3 102000 73
2004-06-07 08:34 51°10.842 2°31.988 3.5 359 18.4 101990 73
2004-06-07 08:35 51°10.803 2°31.929 3.2 359 18.5 102000 72
2004-06-07 08:36 51°10.767 2°31.874 3.2 360 18.6 102000 71
2004-06-07 08:37 51°10.73 2°31.82 3.2 359 18.7 102000 71
2004-06-07 08:38 51°10.695 2°31.765 3.1 358 18.7 102000 71
2004-06-07 08:39 51°10.658 2°31.712 3.1 356 18.8 102000 71
2004-06-07 08:40 51°10.622 2°31.66 3.1 357 18.8 102000 71
2004-06-07 08:41 51°10.585 2°31.608 3.2 356 18.8 101990 71
2004-06-07 08:42 51°10.549 2°31.556 3 354 18.8 102000 71
2004-06-07 08:43 51°10.513 2°31.505 2.9 353 18.8 102000 71
2004-06-07 08:44 51°10.478 2°31.453 2.9 355 18.8 101990 72
2004-06-07 08:45 51°10.444 2°31.398 2.5 353 18.7 102000 72
2004-06-07 08:46 51°10.41 2°31.341 2.5 353 18.7 102000 72
2004-06-07 08:47 51°10.377 2°31.285 2.8 354 18.7 102000 72
2004-06-07 08:48 51°10.346 2°31.232 2.7 351 18.7 102000 72
2004-06-07 08:49 51°10.314 2°31.177 2.4 346 18.7 102000 72
2004-06-07 08:50 51°10.283 2°31.119 2.7 350 18.7 102000 72
2004-06-07 08:51 51°10.256 2°31.059 2.7 346 18.7 102000 72
2004-06-07 08:52 51°10.233 2°30.995 2.3 338 18.7 102000 73
2004-06-07 08:53 51°10.215 2°30.923 2.2 332 18.7 101990 73
2004-06-07 08:54 51°10.203 2°30.849 2 323 18.7 101990 73
2004-06-07 08:55 51°10.193 2°30.78 2 317 18.8 101990 73
2004-06-07 08:56 51°10.185 2°30.719 1.9 227 18.8 101990 73
2004-06-07 08:57 51°10.176 2°30.658 2 312 18.9 101990 72
2004-06-07 08:58 51°10.198 2°30.572 1 308 19 101990 72
2004-06-07 08:59 51°10.25 2°30.521 0.2 308 19.2 101990 72
2004-06-07 09:00 51°10.299 2°30.499   308 19.4 101990 72
2004-06-07 09:01 51°10.343 2°30.502   309 19.5 101990 70
2004-06-07 09:02 51°10.383 2°30.53 0.8 52 19.5 101990 69
2004-06-07 09:03 51°10.423 2°30.567 0.6 55 19.4 102000 69
2004-06-07 09:04 51°10.464 2°30.603 0.8 55 19.3 101990 69
2004-06-07 09:05 51°10.493 2°30.654 1.1 68 19.3 101990 69
2004-06-07 09:06 51°10.512 2°30.719 1.4 68 19.1 101990 70
2004-06-07 09:07 51°10.527 2°30.785 1.4 68 19 102000 70
2004-06-07 09:08 51°10.543 2°30.852 1.1 70 18.9 101990 71
2004-06-07 09:09 51°10.562 2°30.918 0.9 70 18.9 101990 71
2004-06-07 09:10 51°10.583 2°30.99 1.1 57 18.9 101990 71
2004-06-07 09:11 51°10.605 2°31.057 1.4 54 18.9 101990 72
2004-06-07 09:12 51°10.627 2°31.123 1.4 51 19 101990 72
2004-06-07 09:13 51°10.647 2°31.188 1.3 52 19 101990 71
2004-06-07 09:14 51°10.67 2°31.256 1.1 53 19 101990 71
2004-06-07 09:15 51°10.7 2°31.316 0.9 52 19 101990 72
2004-06-07 09:16 51°10.731 2°31.373 0.9 53 19.2 101990 71
2004-06-07 09:17 51°10.763 2°31.428 0.8 53 19.4 101990 70
2004-06-07 09:18 51°10.798 2°31.486 0.9 52 19.6 101990 70
2004-06-07 09:19 51°10.833 2°31.536 1.1 45 19.9 101990 69
2004-06-07 09:20 51°10.866 2°31.583 0.9 44 20.1 101990 68
2004-06-07 09:21 51°10.896 2°31.632 1.4 44 20.3 101990 69
2004-06-07 09:22 51°10.924 2°31.682 1.2 45 20.4 101990 68
2004-06-07 09:23 51°10.954 2°31.745 1.1 44 20.5 101990 66
2004-06-07 09:25 51°10.981 2°31.806 0.7 44 20.6 101990 65
2004-06-07 09:26 51°11.012 2°31.855 0.6 38 20.8 101990 64
2004-06-07 09:27 51°11.046 2°31.895 0.6 19 20.8 101990 63
2004-06-07 09:28 51°11.093 2°31.932 0.7 7 20.9 101990 63
2004-06-07 09:29 51°11.131 2°31.962 0.9 5 21 101990 63
2004-06-07 09:30 51°11.162 2°32.005 1.5 11 21.1 101990 62
2004-06-07 09:31 51°11.187 2°32.064 1.4 15 21.1 101980 61
2004-06-07 09:32 51°11.207 2°32.128 1.3 15 21 101990 62
2004-06-07 09:33 51°11.218 2°32.173 0.8 14 21 101990 63
2004-06-07 09:34 51°11.228 2°32.203 0.8 15 21.1 101980 62
2004-06-07 09:35 51°11.237 2°32.22 0.5 14 21.3 101980 61
2004-06-07 09:36 51°11.245 2°32.227 0.4 14 21.5 101980 61
2004-06-07 09:37 51°11.253 2°32.229 0.3 14 21.6 101980 60
2004-06-07 09:38 51°11.259 2°32.225 0.3 14 21.8 101980 60
2004-06-07 09:39 51°11.264 2°32.217   14 22 101990 59
2004-06-07 09:40 51°11.268 2°32.207   14 22.2 101990 58
2004-06-07 09:41 51°11.271 2°32.194   14 22.3 101990 57
2004-06-07 09:42 51°11.28 2°32.183 0.5 14 22.5 101990 56
2004-06-07 09:43 51°11.291 2°32.173 0.7 14 22.6 101990 56
2004-06-07 09:44 51°11.304 2°32.162 0.9 335 22.5 101990 56
2004-06-07 09:45 51°11.323 2°32.14 1.1 331 22.4 101990 56
2004-06-07 09:46 51°11.338 2°32.107 1.3 332 22.4 101990 57
2004-06-07 09:47 51°11.349 2°32.06 1.5 343 22.3 101990 58
2004-06-07 09:48 51°11.353 2°32.006 1.1 359 22.1 101990 60
2004-06-07 09:49 51°11.351 2°31.955 1 21 22 101990 61
2004-06-07 09:50 51°11.346 2°31.906 0.9 21 21.7 101990 62
2004-06-07 09:51 51°11.367 2°31.808 2.7 355 21.2 101990 65
2004-06-07 09:52 51°11.434 2°31.805 3.9 351 20.8 101990 64
2004-06-07 09:53 51°11.56 2°31.959 6.4 358 20.4 101980 64
2004-06-07 09:54 51°11.684 2°32.194 6.8 359 20.1 101980 64
2004-06-07 09:55 51°11.801 2°32.446 6.5 359 19.9 101980 67
2004-06-07 09:56 51°11.918 2°32.699 6.1 357 19.6 101980 67
2004-06-07 09:57 51°12.03 2°32.948 6.2 355 19.6 101980 67
2004-06-07 09:58 51°12.147 2°33.199 6.3 355 19.6 101980 66
2004-06-07 09:59 51°12.266 2°33.456 6.4 352 19.6 101980 66
2004-06-07 10:00 51°12.383 2°33.711 6.3 352 19.8 101980 68
2004-06-07 10:01 51°12.497 2°33.957 6.4 351 19.8 101990 68
2004-06-07 10:02 51°12.617 2°34.217 6.2 352 19.8 101990 67
2004-06-07 10:03 51°12.737 2°34.476 5.9 352 19.8 101990 66
2004-06-07 10:04 51°12.856 2°34.731 5.8 350 19.9 101990 65
2004-06-07 10:05 51°12.974 2°34.982 5.5 349 19.9 101990 65
2004-06-07 10:06 51°13.074 2°35.251 5.7 349 19.9 101990 66
2004-06-07 10:07 51°13.171 2°35.52 5.5 348 19.8 101990 65
2004-06-07 10:08 51°13.268 2°35.784 5.6 349 19.9 101990 65
2004-06-07 10:09 51°13.365 2°36.045 5.5 347 20 101990 64
2004-06-07 10:10 51°13.467 2°36.319 5.3 346 20.1 101990 66
2004-06-07 10:11 51°13.565 2°36.577 5.2 342 20.1 101990 66
2004-06-07 10:12 51°13.648 2°36.854 5.1 344 20 101990 66
2004-06-07 10:13 51°13.732 2°37.134 5.1 342 20 101990 66
2004-06-07 10:14 51°13.815 2°37.41 5.5 342 20 101990 66
2004-06-07 10:15 51°13.894 2°37.683 5.6 341 19.9 102000 67
2004-06-07 10:16 51°13.975 2°37.966 5.5 343 19.9 101990 68
2004-06-07 10:17 51°14.029 2°38.257 5.4 344 19.9 102000 68
2004-06-07 10:18 51°14.052 2°38.568 4.6 352 20 102000 68
2004-06-07 10:19 51°13.933 2°38.807 5 26 19.9 102000 66
2004-06-07 10:20 51°13.713 2°38.715 7.4 27 19.7 102000 66
2004-06-07 10:21 51°13.502 2°38.532 7.1 27 19.6 101990 68
2004-06-07 10:22 51°13.29 2°38.345 7.2 29 19.5 101990 69
2004-06-07 10:23 51°13.085 2°38.147 7.6 29 19.3 101990 71
2004-06-07 10:24 51°12.877 2°37.947 7.8 28 19.1 102000 71
2004-06-07 10:25 51°12.675 2°37.755 7.6 27 19 101990 71
2004-06-07 10:26 51°12.455 2°37.55 7.5 28 18.9 101990 71
2004-06-07 10:27 51°12.25 2°37.338 7.6 27 18.9 101990 71
2004-06-07 10:28 51°12.047 2°37.126 7.3 26 19 101990 71
2004-06-07 10:29 51°11.835 2°36.951 6.6 27 19 101990 70
2004-06-07 10:30 51°11.617 2°36.807 6.7 25 19.1 101990 68
2004-06-07 10:31 51°11.395 2°36.659 6.8 25 19.3 101990 68
2004-06-07 10:32 51°11.169 2°36.507 6.5 24 19.4 101990 67
2004-06-07 10:33 51°10.948 2°36.358 6.4 26 19.4 101990 67
2004-06-07 10:34 51°10.733 2°36.214 6.8 29 19.5 101990 67
2004-06-07 10:35 51°10.486 2°36.05 6.4 27 19.3 101980 70
2004-06-07 10:36 51°10.266 2°35.909 6.1 27 19.2 101980 70
2004-06-07 10:37 51°10.05 2°35.76 6.4 30 19.1 101980 71
2004-06-07 10:38 51°9.835 2°35.605 6.3 28 18.9 101980 73
2004-06-07 10:39 51°9.618 2°35.44 6.4 28 18.8 101970 74
2004-06-07 10:40 51°9.4 2°35.277 6.2 27 18.8 101970 73
2004-06-07 10:41 51°9.179 2°35.11 5.8 25 19 101980 72
2004-06-07 10:42 51°8.992 2°34.967 3.3 42 19.1 101970 69
2004-06-07 10:43 51°8.877 2°34.899 1.1 105 19 101980 69
2004-06-07 10:44 51°8.804 2°34.872 1.1 146 19 101980 69
2004-06-07 10:45 51°8.773 2°34.839 2.9 166 19 101980 68
2004-06-07 10:46 51°8.761 2°34.793 2.3 159 19.1 101980 67
2004-06-07 10:47 51°8.739 2°34.75 2.2 152 19.1 101980 67
2004-06-07 10:48 51°8.716 2°34.706 2.1 152 19.2 101980 66
2004-06-07 10:49 51°8.693 2°34.659 2.2 145 19.2 101980 67
2004-06-07 10:50 51°8.666 2°34.608 2.2 125 19.2 101980 67
2004-06-07 10:51 51°8.631 2°34.532 2.4 96 19.2 101980 68
2004-06-07 10:52 51°8.599 2°34.442 2.5 91 19.2 101980 70
2004-06-07 10:53 51°8.567 2°34.349 2.4 91 19 101970 70
2004-06-07 10:54 51°8.537 2°34.266 2.3 91 18.9 101970 70
2004-06-07 10:55 51°8.506 2°34.183 2.1 93 18.9 101980 68
2004-06-07 10:56 51°8.477 2°34.104 2.1 97 19 101970 69
2004-06-07 10:57 51°8.45 2°34.025 2.1 91 19.1 101970 69
2004-06-07 10:58 51°8.425 2°33.951 2.1 92 19.1 101970 69
2004-06-07 10:59 51°8.4 2°33.879 2.1 101 19 101970 67
2004-06-07 11:00 51°8.376 2°33.809 2 103 19.1 101960 67
2004-06-07 11:01 51°8.351 2°33.742 2.1 107 19.2 101970 66
2004-06-07 11:02 51°8.326 2°33.676 2.2 108 19.3 101960 65
2004-06-07 11:03 51°8.301 2°33.612 2.1 109 19.3 101960 65
2004-06-07 11:04 51°8.276 2°33.549 2.3 109 19.4 101960 65
2004-06-07 11:05 51°8.25 2°33.488 2.3 108 19.4 101960 65
2004-06-07 11:06 51°8.225 2°33.427 2.2 108 19.4 101960 65
2004-06-07 11:07 51°8.2 2°33.365 2.1 105 19.4 101960 65
2004-06-07 11:08 51°8.176 2°33.304 2 105 19.4 101960 64
2004-06-07 11:09 51°8.152 2°33.241 1.8 105 19.5 101960 64
2004-06-07 11:10 51°8.128 2°33.178 1.9 105 19.5 101960 64
2004-06-07 11:11 51°8.103 2°33.113 1.9 105 19.6 101950 63
2004-06-07 11:12 51°8.078 2°33.047 1.9 103 19.6 101960 63
2004-06-07 11:13 51°8.054 2°32.98 1.8 98 19.6 101950 63
2004-06-07 11:14 51°8.031 2°32.913 1.8 97 19.6 101950 63
2004-06-07 11:15 51°8.007 2°32.846 1.7 97 19.6 101950 63
2004-06-07 11:16 51°7.983 2°32.779 1.7 97 19.6 101950 63
2004-06-07 11:17 51°7.959 2°32.713 1.6 98 19.6 101950 63
2004-06-07 11:18 51°7.936 2°32.648 1.6 101 19.6 101950 63
2004-06-07 11:19 51°7.912 2°32.582 1.6 101 19.7 101950 63
2004-06-07 11:20 51°7.889 2°32.517 1.7 101 19.7 101950 63
2004-06-07 11:21 51°7.866 2°32.452 1.8 105 19.7 101950 63
2004-06-07 11:22 51°7.842 2°32.386 1.8 106 19.7 101950 62
2004-06-07 11:23 51°7.818 2°32.321 1.9 106 19.7 101950 62
2004-06-07 11:24 51°7.796 2°32.257 2.1 100 19.8 101950 62
2004-06-07 11:25 51°7.777 2°32.19 2.5 87 19.7 101950 62
2004-06-07 11:26 51°7.76 2°32.102 2.7 65 19.6 101960 62
2004-06-07 11:27 51°7.75 2°32.004 2.8 51 19.5 101950 63
2004-06-07 11:28 51°7.748 2°31.92 2.6 50 19.5 101950 63
2004-06-07 11:29 51°7.748 2°31.854 2.5 51 19.5 101950 62
2004-06-07 11:30 51°7.747 2°31.797 2.3 50 19.5 101950 62
2004-06-07 11:31 51°7.746 2°31.749 2.2 51 19.5 101950 62
2004-06-07 11:32 51°7.762 2°31.691 3.8 13 19.5 101950 62
2004-06-07 11:33 51°7.817 2°31.696 3.4 334 19.7 101950 62
2004-06-07 11:34 51°7.824 2°31.749 3 43 19.9 101950 61
2004-06-07 11:35 51°7.825 2°31.805 3.1 43 20.1 101950 61
2004-06-07 11:36 51°7.829 2°31.874 3.6 42 20.2 101940 61
2004-06-07 11:37 51°7.836 2°31.949 3.4 228 20.3 101940 61
2004-06-07 11:38 51°7.841 2°32.025 3.4 313 20.3 101940 60
2004-06-07 11:39 51°7.852 2°32.094 3.9 43 20.3 101940 60
2004-06-07 11:40 51°7.872 2°32.152 3.7 42 20.4 101940 61
2004-06-07 11:41 51°7.889 2°32.208 3.7 313 20.4 101940 62
2004-06-07 11:42 51°7.898 2°32.268 3.7 227 20.3 101940 62
2004-06-07 11:43 51°7.914 2°32.326 3.7 333 20.2 101940 64
2004-06-07 11:44 51°7.93 2°32.381 3.7 322 20.2 101940 69
2004-06-07 11:45 51°7.943 2°32.438 4.1 318 19.9 101930 67
2004-06-07 11:46 51°7.958 2°32.491 3.6 321 19.8 101930 65
2004-06-07 11:47 51°7.976 2°32.544 3.9 322 19.8 101930 65
2004-06-07 11:48 51°7.992 2°32.595 3.8 324 19.8 101940 64
2004-06-07 11:49 51°8.008 2°32.644 3.5 339 19.8 101930 68
2004-06-07 11:50 51°8.025 2°32.693 3.7 355 19.9 101940 70
2004-06-07 11:51 51°8.042 2°32.745 4 346 19.7 101940 72
2004-06-07 11:52 51°8.058 2°32.796 3.6 341 19.6 101940 71
2004-06-07 11:53 51°8.075 2°32.848 4.2 341 19.6 101930 72
2004-06-07 11:54 51°8.092 2°32.898 3.9 337 19.5 101940 71
2004-06-07 11:55 51°8.109 2°32.948 3.9 336 19.5 101940 69
2004-06-07 11:56 51°8.128 2°32.996 4 333 19.6 101930 67
2004-06-07 11:57 51°8.148 2°33.042 3.9 332 19.7 101930 65
2004-06-07 11:58 51°8.168 2°33.089 3.9 331 19.7 101930 65
2004-06-07 11:59 51°8.187 2°33.137 4.2 331 19.8 101930 65
2004-06-07 12:00 51°8.206 2°33.186 4.1 329 19.8 101930 65
2004-06-07 12:01 51°8.225 2°33.236 4 327 19.8 101930 65
2004-06-07 12:02 51°8.246 2°33.286 4.3 326 19.7 101930 64
2004-06-07 12:03 51°8.264 2°33.333 1.9 326 19.7 101930 64
2004-06-07 12:04 51°8.283 2°33.381 4 326 19.7 101930 65
2004-06-07 12:05 51°8.304 2°33.434 3.8 322 19.7 101930 63
2004-06-07 12:06 51°8.323 2°33.483 3.6 316 19.8 101930 62
2004-06-07 12:07 51°8.341 2°33.537 3.6 316 19.9 101930 62
2004-06-07 12:08 51°8.362 2°33.592 3.6 320 20 101930 64
2004-06-07 12:09 51°8.383 2°33.648 3.6 325 20 101930 63
2004-06-07 12:10 51°8.409 2°33.687 3.5 336 20 101930 67
2004-06-07 12:11 51°8.43 2°33.694 3.2 349 20.1 101930 69
2004-06-07 12:12 51°8.449 2°33.683 3.1 355 19.9 101930 69
2004-06-07 12:13 51°8.463 2°33.665 3.2 2 19.7 101920 70
2004-06-07 12:14 51°8.472 2°33.642 3.5 6 19.5 101920 71
2004-06-07 12:15 51°8.481 2°33.615 3.1 28 19.5 101920 71
2004-06-07 12:16 51°8.488 2°33.578 2.6 63 19.5 101920 72
2004-06-07 12:17 51°8.489 2°33.533 2.3 99 19.2 101920 75
2004-06-07 12:18 51°8.484 2°33.483 2.7 116 18.8 101920 77
2004-06-07 12:19 51°8.473 2°33.431 2.4 134 18.7 101920 78
2004-06-07 12:20 51°8.455 2°33.382 2.4 149 18.6 101920 78
2004-06-07 12:21 51°8.432 2°33.34 2.3 167 18.5 101920 77
2004-06-07 12:22 51°8.406 2°33.307 1.2 185 18.5 101920 78
2004-06-07 12:23 51°8.376 2°33.284 2.1 220 18.5 101920 76
2004-06-07 12:24 51°8.343 2°33.286 3.2 261 18.6 101910 75
2004-06-07 12:25 51°8.327 2°33.336 4.2 313 18.7 101910 75
2004-06-07 12:26 51°8.34 2°33.408 4.8 319 18.8 101910 74
2004-06-07 12:27 51°8.356 2°33.481 4.7 317 19 101910 72
2004-06-07 12:28 51°8.37 2°33.554 4.6 43 19.1 101910 71
2004-06-07 12:29 51°8.382 2°33.625 4.4 319 19.1 101910 71
2004-06-07 12:30 51°8.399 2°33.697 4.3 319 19.2 101910 70
2004-06-07 12:31 51°8.414 2°33.761 4.8 319 19.2 101910 70
2004-06-07 12:32 51°8.432 2°33.82 4.7 323 19.3 101910 67
2004-06-07 12:33 51°8.451 2°33.878 4.7 324 19.3 101910 67
2004-06-07 12:34 51°8.469 2°33.934 4.6 321 19.4 101910 67
2004-06-07 12:35 51°8.486 2°33.988 4.8 320 19.4 101910 66
2004-06-07 12:36 51°8.504 2°34.042 4.9 323 19.5 101920 65
2004-06-07 12:37 51°8.527 2°34.093 4.7 326 19.5 101910 65
2004-06-07 12:38 51°8.551 2°34.146 4.6 331 19.6 101910 69
2004-06-07 12:39 51°8.575 2°34.2 5.4 317 19.5 101910 69
2004-06-07 12:40 51°8.597 2°34.256 5.5 319 19.5 101910 67
2004-06-07 12:41 51°8.622 2°34.312 5 324 19.5 101900 67
2004-06-07 12:42 51°8.643 2°34.371 4.5 332 19.5 101910 68
2004-06-07 12:43 51°8.661 2°34.432 5.3 331 19.4 101910 70
2004-06-07 12:44 51°8.68 2°34.494 4.8 337 19.4 101910 70
2004-06-07 12:45 51°8.699 2°34.556 5.5 332 19.3 101910 71
2004-06-07 12:46 51°8.718 2°34.618 5.2 331 19.2 101910 69
2004-06-07 12:47 51°8.738 2°34.68 5.6 327 19.3 101910 70
2004-06-07 12:48 51°8.76 2°34.743 4.9 327 19.2 101910 70
2004-06-07 12:49 51°8.78 2°34.806 4.6 332 19.2 101910 72
2004-06-07 12:50 51°8.801 2°34.87 4.6 331 19.2 101910 73
2004-06-07 12:51 51°8.821 2°34.933 5.3 328 19.1 101910 72
2004-06-07 12:52 51°8.841 2°34.996 5 324 19.1 101910 72
2004-06-07 12:53 51°8.861 2°35.061 5.4 322 19.1 101910 72
2004-06-07 12:54 51°8.883 2°35.126 5.4 322 19.2 101910 72
2004-06-07 12:55 51°8.904 2°35.191 4.8 324 19.2 101910 73
2004-06-07 12:56 51°8.927 2°35.262 5.1 325 19.2 101900 73
2004-06-07 12:57 51°8.95 2°35.328 5.1 320 19.2 101900 73
2004-06-07 12:58 51°8.973 2°35.394 4.6 321 19.2 101900 73
2004-06-07 12:59 51°8.994 2°35.463 4.7 322 19.2 101910 73
2004-06-07 13:00 51°9.015 2°35.527 4.5 327 19.2 101910 72
2004-06-07 13:01 51°9.043 2°35.589 5.1 328 19.2 101910 72
2004-06-07 13:02 51°9.073 2°35.648 4.6 328 19.2 101910 72
2004-06-07 13:03 51°9.101 2°35.693 4.6 335 19.2 101910 72
2004-06-07 13:04 51°9.127 2°35.715 4.3 344 19.2 101910 72
2004-06-07 13:05 51°9.15 2°35.728 4.7 344 19.2 101910 72
2004-06-07 13:06 51°9.177 2°35.767 4.9 323 19.2 101900 71
2004-06-07 13:07 51°9.202 2°35.834 5.2 332 19.2 101900 71
2004-06-07 13:08 51°9.227 2°35.893 4.8 329 19.2 101900 71
2004-06-07 13:09 51°9.247 2°35.949 4.9 323 19.2 101900 70
2004-06-07 13:10 51°9.262 2°36.008 5.1 322 19.2 101900 70
2004-06-07 13:11 51°9.277 2°36.073 4.3 328 19.3 101900 70
2004-06-07 13:12 51°9.296 2°36.137 4.6 335 19.3 101900 71
2004-06-07 13:13 51°9.321 2°36.199 4.6 333 19.3 101900 71
2004-06-07 13:14 51°9.343 2°36.262 4.8 330 19.3 101900 69
2004-06-07 13:16 51°9.369 2°36.335 5 321 19.3 101900 69
2004-06-07 13:17 51°9.392 2°36.397 5 320 19.4 101890 68
2004-06-07 13:18 51°9.412 2°36.458 5 319 19.4 101890 68
2004-06-07 13:19 51°9.43 2°36.519 4.8 322 19.4 101890 67
2004-06-07 13:20 51°9.449 2°36.582 4.7 325 19.5 101890 69
2004-06-07 13:21 51°9.47 2°36.643 4.7 329 19.5 101880 69
2004-06-07 13:22 51°9.492 2°36.702 4.1 346 19.5 101880 70
2004-06-07 13:23 51°9.519 2°36.759 4.5 337 19.5 101890 73
2004-06-07 13:24 51°9.545 2°36.817 4.4 337 19.4 101880 73
2004-06-07 13:25 51°9.569 2°36.877 4.6 335 19.4 101880 73
2004-06-07 13:26 51°9.595 2°36.938 4.8 332 19.3 101880 73
2004-06-07 13:27 51°9.62 2°37 4.5 332 19.3 101880 73
2004-06-07 13:28 51°9.645 2°37.061 4.7 336 19.3 101870 73
2004-06-07 13:29 51°9.669 2°37.119 4.4 332 19.3 101870 72
2004-06-07 13:30 51°9.693 2°37.178 4.5 334 19.3 101880 71
2004-06-07 13:31 51°9.716 2°37.235 4.6 335 19.3 101870 70
2004-06-07 13:32 51°9.74 2°37.295 5 334 19.4 101870 70
2004-06-07 13:33 51°9.765 2°37.358 5.1 334 19.4 101880 69
2004-06-07 13:34 51°9.79 2°37.42 5.2 336 19.4 101870 68
2004-06-07 13:35 51°9.816 2°37.483 3.5 343 19.5 101880 68
2004-06-07 13:36 51°9.843 2°37.542 4.7 345 19.5 101880 71
2004-06-07 13:37 51°9.874 2°37.602 5.3 345 19.5 101880 70
2004-06-07 13:38 51°9.903 2°37.66 4.6 341 19.5 101870 71
2004-06-07 13:39 51°9.938 2°37.732 4.2 334 19.5 101880 73
2004-06-07 13:40 51°9.963 2°37.789 5.2 332 19.4 101880 73
2004-06-07 13:41 51°9.99 2°37.847 5.8 329 19.4 101870 73
2004-06-07 13:42 51°10.024 2°37.914 5.6 339 19.3 101870 74
2004-06-07 13:43 51°10.097 2°38.03 7.4 344 19.2 101870 74
2004-06-07 13:44 51°10.172 2°38.143 6.4 346 19.1 101870 74
2004-06-07 13:45 51°10.229 2°38.192 5.5 359 19.1 101880 74
2004-06-07 13:46 51°10.273 2°38.217 4.6 4 19 101880 75
2004-06-07 13:47 51°10.295 2°38.233 3.3 349 18.9 101880 76
2004-06-07 13:48 51°10.296 2°38.24 3.3 349 18.9 101880 76
2004-06-07 13:49 51°10.3 2°38.25 3.2 348 18.9 101880 75
2004-06-07 13:50 51°10.305 2°38.263 3.5 347 18.9 101880 75
2004-06-07 13:51 51°10.31 2°38.275 3.6 338 19 101880 74
2004-06-07 13:52 51°10.315 2°38.286 4 330 19 101880 74
2004-06-07 13:53 51°10.32 2°38.299 3.8 318 19 101880 74
2004-06-07 13:54 51°10.326 2°38.316 4 310 19 101880 74
2004-06-07 13:55 51°10.332 2°38.331 3.9 294 19 101880 74
2004-06-07 13:56 51°10.339 2°38.348 3.4 284 19 101880 75
2004-06-07 13:57 51°10.346 2°38.373 4 284 18.9 101880 76
2004-06-07 13:58 51°10.357 2°38.413 3.6 294 18.9 101880 77
2004-06-07 13:59 51°10.372 2°38.463 3.9 307 18.8 101880 77
2004-06-07 14:00 51°10.392 2°38.514 4.1 317 18.9 101870 77
2004-06-07 14:01 51°10.416 2°38.562 4.4 326 19 101870 77
2004-06-07 14:02 51°10.443 2°38.61 4.5 333 19 101870 76
2004-06-07 14:03 51°10.469 2°38.654 4.7 339 19.1 101870 76
2004-06-07 14:04 51°10.499 2°38.697 5 345 19 101870 76
2004-06-07 14:05 51°10.528 2°38.733 4.8 351 19 101870 76
2004-06-07 14:06 51°10.559 2°38.769 5 358 19 101870 77
2004-06-07 14:07 51°10.63 2°38.845 7.9 342 18.9 101860 77
2004-06-07 14:08 51°10.757 2°39.09 10 342 18.9 101850 77
2004-06-07 14:09 51°10.875 2°39.412 9.9 342 18.9 101850 77
2004-06-07 14:10 51°10.989 2°39.73 10.7 345 18.9 101850 77
2004-06-07 14:11 51°11.109 2°40.064 10.1 345 18.9 101850 77
2004-06-07 14:12 51°11.225 2°40.386 10.5 345 18.8 101850 78
2004-06-07 14:13 51°11.344 2°40.723 10.6 345 18.8 101850 77
2004-06-07 14:14 51°11.461 2°41.053 11.3 346 18.8 101850 78
2004-06-07 14:15 51°11.585 2°41.406 11.2 344 18.8 101850 78
2004-06-07 14:16 51°11.702 2°41.733 10.7 343 18.8 101840 77
2004-06-07 14:17 51°11.819 2°42.068 10.3 341 18.8 101850 76
2004-06-07 14:18 51°11.933 2°42.394 10.9 339 18.8 101840 74
2004-06-07 14:19 51°12.059 2°42.757 10.1 342 18.8 101840 74
2004-06-07 14:20 51°12.173 2°43.097 10.6 342 18.9 101840 75
2004-06-07 14:21 51°12.29 2°43.443 10.3 343 18.9 101850 76
2004-06-07 14:22 51°12.405 2°43.785 9.9 345 18.9 101850 77
2004-06-07 14:23 51°12.489 2°44.143 9.3 345 18.8 101850 77
2004-06-07 14:24 51°12.56 2°44.51 10.2 342 18.9 101850 77
2004-06-07 14:25 51°12.633 2°44.877 10.4 343 18.8 101850 76
2004-06-07 14:26 51°12.703 2°45.245 10.3 346 18.9 101850 76
2004-06-07 14:27 51°12.773 2°45.615 10.7 344 18.9 101850 77
2004-06-07 14:28 51°12.845 2°45.987 10.1 346 19 101840 78
2004-06-07 14:29 51°12.945 2°46.341 11.7 354 18.9 101850 78
2004-06-07 14:30 51°13.059 2°46.686 11.6 354 18.9 101850 78
2004-06-07 14:31 51°13.175 2°47.046 10.8 359 18.8 101850 78
2004-06-07 14:33 51°13.287 2°47.393 11.5 353 18.7 101850 79
2004-06-07 14:34 51°13.398 2°47.735 10.8 350 18.7 101850 79
2004-06-07 14:35 51°13.509 2°48.079 10.9 355 18.7 101840 78
2004-06-07 14:36 51°13.584 2°48.34 7.7 345 18.8 101850 77
2004-06-07 14:37 51°13.601 2°48.503 6.3 331 18.8 101860 77
2004-06-07 14:38 51°13.625 2°48.607 5.7 6 18.9 101860 77
2004-06-07 14:39 51°13.648 2°48.656 4.4 5 18.9 101860 78
2004-06-07 14:40 51°13.667 2°48.696 4.6 2 18.8 101870 78
2004-06-07 14:41 51°13.702 2°48.745 5.5 15 18.8 101860 77
2004-06-07 14:42 51°13.756 2°48.799 5.9 12 18.7 101860 77
2004-06-07 14:43 51°13.816 2°48.869 6.1 2 18.7 101860 77
2004-06-07 14:44 51°13.87 2°48.949 5.9 358 18.7 101860 76
2004-06-07 14:45 51°13.916 2°49.027 5.8 358 18.7 101860 76
2004-06-07 14:46 51°13.958 2°49.106 5 359 18.8 101860 76
2004-06-07 14:47 51°13.992 2°49.173 4.9 353 18.8 101860 76
2004-06-07 14:48 51°14.023 2°49.239 5.1 355 18.9 101860 76
2004-06-07 14:49 51°14.053 2°49.306 5.1 352 18.9 101860 76
2004-06-07 14:50 51°14.082 2°49.369 4.8 352 18.9 101860 76
2004-06-07 14:51 51°14.111 2°49.433 4.8 357 19 101860 76
2004-06-07 14:52 51°14.141 2°49.494 4.7 4 19 101860 75
2004-06-07 14:53 51°14.171 2°49.557 4.8 2 18.9 101860 76
2004-06-07 14:54 51°14.199 2°49.619 5.2 5 18.9 101860 76
2004-06-07 14:55 51°14.229 2°49.681 4.8 7 18.8 101860 76
2004-06-07 14:56 51°14.257 2°49.742 4.8 2 18.8 101860 77
2004-06-07 14:57 51°14.285 2°49.805 5.2 356 18.8 101860 77
2004-06-07 14:58 51°14.312 2°49.866 5.4 354 18.8 101860 77
2004-06-07 14:59 51°14.339 2°49.93 5.1 358 18.8 101860 76
2004-06-07 15:00 51°14.366 2°49.993 5.2 3 18.8 101860 77
2004-06-07 15:01 51°14.395 2°50.056 5.5 9 18.8 101860 77
2004-06-07 15:02 51°14.425 2°50.119 5 4 18.8 101860 78
2004-06-07 15:03 51°14.454 2°50.181 5 3 18.7 101860 78
2004-06-07 15:04 51°14.483 2°50.245 5 357 18.7 101860 78
2004-06-07 15:05 51°14.512 2°50.31 5.2 353 18.7 101860 78
2004-06-07 15:06 51°14.54 2°50.373 5 353 18.7 101860 78
2004-06-07 15:07 51°14.568 2°50.438 5 357 18.7 101860 78
2004-06-07 15:08 51°14.598 2°50.503 5.3 7 18.7 101870 78
2004-06-07 15:09 51°14.627 2°50.567 4.9 357 18.7 101860 78
2004-06-07 15:10 51°14.654 2°50.635 5 347 18.7 101860 78
2004-06-07 15:11 51°14.676 2°50.703 5 330 18.7 101860 78
2004-06-07 15:12 51°14.696 2°50.773 5 323 18.8 101860 78
2004-06-07 15:13 51°14.715 2°50.85 4.5 325 18.8 101860 77
2004-06-07 15:14 51°14.747 2°51.009 7.6 347 18.8 101860 77
2004-06-07 15:15 51°14.793 2°51.233 6.6 354 18.8 101850 78
2004-06-07 15:16 51°14.843 2°51.336 5 17 18.8 101860 77
2004-06-07 15:17 51°14.887 2°51.396 4.7 26 18.7 101860 77
2004-06-07 15:18 51°14.927 2°51.444 4.2 36 18.7 101860 77
2004-06-07 15:19 51°14.964 2°51.484 4.4 41 18.5 101860 78
2004-06-07 15:20 51°14.996 2°51.52 4.4 56 18.4 101860 78
2004-06-07 15:21 51°15.025 2°51.552 4.1 63 18.3 101860 78
2004-06-07 15:22 51°15.054 2°51.583 4 67 18.3 101860 79
2004-06-07 15:23 51°15.093 2°51.597 3.8 97 18.2 101860 79
2004-06-07 15:24 51°15.121 2°51.602 3.5 129 18.2 101860 79
2004-06-07 15:25 51°15.141 2°51.604 3.1 138 18.2 101860 79
2004-06-07 15:26 51°15.156 2°51.595 3.2 151 18.3 101860 79
2004-06-07 15:27 51°15.158 2°51.57 2.3 174 18.3 101860 79
2004-06-07 15:28 51°15.151 2°51.548 1.3 204 18.3 101860 79
2004-06-07 15:29 51°15.143 2°51.532 1.3 191 18.5 101860 79
2004-06-07 15:30 51°15.129 2°51.525 2.5 220 18.6 101850 77
2004-06-07 15:31 51°15.111 2°51.531 3.1 239 18.6 101850 77
2004-06-07 15:32 51°15.09 2°51.549 2.3 248 18.6 101850 78
2004-06-07 15:33 51°15.067 2°51.581 2.1 254 18.5 101850 77
2004-06-07 15:34 51°15.018 2°51.681 6.7 329 18.5 101850 78
2004-06-07 15:35 51°15.001 2°51.972 8.6 341 18.6 101840 77
2004-06-07 15:36 51°14.984 2°52.33 10 350 18.8 101830 75
2004-06-07 15:37 51°14.95 2°52.702 10 347 18.9 101830 75
2004-06-07 15:38 51°14.914 2°53.074 9.3 345 19 101830 75
2004-06-07 15:39 51°14.824 2°53.411 9.1 341 19.1 101830 75
2004-06-07 15:40 51°14.733 2°53.738 8.3 346 19.1 101840 75
2004-06-07 15:41 51°14.653 2°54.093 9.4 342 19.2 101830 76
2004-06-07 15:42 51°14.574 2°54.443 8.6 343 19.1 101830 76
2004-06-07 15:43 51°14.489 2°54.757 7.5 340 19.1 101830 75
2004-06-07 15:44 51°14.387 2°55.042 6.4 340 19.1 101830 75
2004-06-07 15:45 51°14.264 2°55.261 5.5 345 19.1 101830 76
2004-06-07 15:46 51°14.154 2°55.419 4.5 333 19.2 101840 76
2004-06-07 15:47 51°14.054 2°55.505 2.8 310 19.2 101840 75